Regional Weather Roundup
Issued by NWS

Home | Current Version | Previous Version | Text Only | Print | Product List | Glossary Off
Versions: 1 2 3 4 5 6 7 8 9 10 11 12 13 14 15 16 17 18 19 20 21 22 23 24 25 26 27

000
ASUS45 KBOU 221807
RWRCO

WEATHER ROUNDUP FOR COLORADO
NATIONAL WEATHER SERVICE DENVER/BOULDER CO
1200 PM MDT WED OCT 22 2014

NOTE: "FAIR" INDICATES FEW OR NO CLOUDS BELOW 12000 FEET WITH NO
SIGNIFICANT WEATHER AND/OR OBSTRUCTIONS TO VISIBILITY.

COZ001>005-013-030-031-221900-
...NORTHWEST COLORADO...

CITY           SKY/WX    TMP DP  RH WIND       PRES   REMARKS
CRAIG          PTSUNNY   52  42  69 CALM      30.22S
HAYDEN         MOSUNNY   52  39  62 W7        30.22S
MEEKER         SUNNY     57  43  59 MISG      30.20S
MOUNT WERNER   NOT AVBL
STEAMBOAT SPGS PTSUNNY   49  39  69 CALM      30.22S
WALDEN         CLOUDY    52  32  46 SW18G24   30.22R
$$

COZ006>008-011-221900-
...WEST CENTRAL VALLEYS...

CITY           SKY/WX    TMP DP  RH WIND       PRES   REMARKS
GRAND JUNCTION SUNNY     59  46  62 CALM      30.16S
MONTROSE       MOSUNNY   60  44  55 NW8       30.20S
EAGLE          MOSUNNY   50  43  76 CALM      30.24F
RIFLE          SUNNY     56  44  64 CALM      30.19F
DELTA          SUNNY     65  45  48 CALM      30.17F
NUCLA          SUNNY     63  41  45 NW7       30.23S
$$

COZ017>023-064>068-221900-
...SOUTHWEST COLORADO...

CITY           SKY/WX    TMP DP  RH WIND       PRES   REMARKS
DURANGO        SUNNY     57  45  64 E6        30.25S
CORTEZ         SUNNY     65  42  43 VRB6      30.21S
PAGOSA SPRINGS PTSUNNY   56  42  57 S9        30.29S
TELLURIDE      PTSUNNY   54  34  46 W7        30.33F
WOLF CREEK PAS MOSUNNY   37  32  81 S10G18      N/A
$$

COZ009-010-012-014-032>034-037-058>063-221900-
...CENTRAL COLORADO...

CITY           SKY/WX    TMP DP  RH WIND       PRES   REMARKS
ASPEN          MOSUNNY   50  40  68 CALM      30.24S
BUENA VISTA    MOSUNNY   55  36  49 SE6       30.25F
COPPER MTN     CLOUDY    39  27  60 SW6G17    30.41R
BERTHOUD PASS  FAIR      30  27  86 MISG      30.39S
COTTONWOOD PAS CLOUDY    50  30  46 W12G17    30.33S
GUNNISON       MOSUNNY   48  37  66 N5        30.31S
KREMMLING      MOSUNNY   52  37  58 CALM        N/A
LEADVILLE      MOSUNNY   42  32  67 CALM      30.31S
MONARCH PASS   FOG       32  32 100 MISG      30.50S VSB<1/4
SALIDA         MOSUNNY   60  35  38 W20G26    30.31S
SUNLIGHT       PTSUNNY   41  39  93 CALM      30.38R
WILKERSON PASS NOT AVBL
$$

COZ069>075-221900-
...SAN LUIS VALLEY/SANGRE DE CRISTO MOUNTAINS...

CITY           SKY/WX    TMP DP  RH WIND       PRES   REMARKS
ALAMOSA        SUNNY     58  36  43 E6        30.26S
LA VETA PASS   PTSUNNY   52  34  50 S8G16     30.35F
SAGUACHE       SUNNY     57  36  44 S6        30.27F
$$

COZ035-036-038>040-221900-
...NORTHERN COLORADO FRONT RANGE...

CITY           SKY/WX    TMP DP  RH WIND       PRES   REMARKS
DENVER INTL AP MOSUNNY   67  39  35 E8        30.11F
DMNS CITY PARK   N/A     68  38  33 NE2G8     30.10F
AURORA         PTSUNNY   66  35  31 SE6       30.12F
FRONT RANGE AP NOT AVBL
ERIE MUNI ARPT PTSUNNY   64  42  45 CALM      30.10F
BOULDER MUN AP CLOUDY    63  37  39 NE5       30.10F
CENTENNIAL     PTSUNNY   65  34  31 CALM      30.12S
BROOMFIELD     PTSUNNY   63  37  39 E3        30.13S
FORT COLLINS   MOSUNNY   61  43  51 SW3       30.11F
LONGMONT       PTSUNNY   67  43  42 CALM      30.11F
$$

COZ041-046-047-076>085-087-088-221900-
...PIKES PEAK/PALMER DIVIDE AND SOUTHERN FOOTHILLS...

CITY           SKY/WX    TMP DP  RH WIND       PRES   REMARKS
COLO. SPRINGS  MOSUNNY   63  39  41 S8G17     30.17S
A. F. ACADEMY  MOSUNNY   63  37  38 SE10      30.17S
ELLICOTT       MOSUNNY   65  37  35 S12       30.15S
FALCON         MOSUNNY   63  34  34 S8        30.20S
FORT CARSON    NOT AVBL
LIMON          SUNNY     65  38  36 NE9       30.13S
MONUMENT HILL  MOSUNNY   63  30  29 W6        30.17S
TRINIDAD       SUNNY     65  42  43 E9        30.16S
$$

COZ042>045-048>051-090-091-221900-
...NORTHEAST COLORADO...

CITY           SKY/WX    TMP DP  RH WIND       PRES   REMARKS
GREELEY ARPT   PTSUNNY   64  43  45 SE7       30.11S
AKRON          SUNNY     64  39  39 N9G18     30.10F
BURLINGTON     SUNNY     69  44  40 NE13      30.08S
WRAY           MOSUNNY   70  43  37 N6        30.07S
STERLING       SUNNY     70  41  35 N10       30.07S
HOLYOKE        MOSUNNY   72  37  28 N15G23    30.07S
FORT MORGAN    SUNNY     68  37  31 CALM      30.10F
$$

COZ086-089-092>099-221900-
...SOUTHEAST COLORADO...

CITY           SKY/WX    TMP DP  RH WIND       PRES   REMARKS
PUEBLO         SUNNY     68  41  37 S7        30.10F
LA JUNTA       SUNNY     70  44  39 VRB3      30.09F
LAMAR          SUNNY     72  45  37 N13       30.04S
SPRINGFIELD      N/A     71  45  39 N12       30.07S
$$



USA.gov is the U.S. government's official web portal to all federal, state and local government web resources and services.